Location: Aalen
(48.8330°N, 10.1000°E)
Time: 22:03:23
(UTC+02:00)

COSMOS 2251 DEB - Pass Details

Date: 19 January 2022
Orbit: 755 x 791 km, 74.0° (Epoch: 23 May)

Event Time Altitude Azimuth Distance (km) Brightness Sun altitude
Rises 18:58:45 0° 219° (SW) 3,220 ? -19.7°
Reaches altitude 10° 19:01:12 10° 225° (SW) 2,293 ? -20.1°
Maximum altitude 19:06:13 48° 299° (WNW) 990 ? -20.9°
Enters shadow 19:11:00 11° 13° (NNE) 2,204 ? -21.7°
